UAL506 KSTL-KMDT

Flight info

Callsign UAL506
Flight time 1h 20m
Altitude 37000
Route GATWY1 ROD J152 HAR
Aircraft A20N/M-SDE2E3FGHIRWXY/LB1

Departure

Time 2026-05-07 00:58
Airport St. Louis Lambert International Airport (KSTL)

Arrival

Time 2026-05-07 02:18
Airport Harrisburg International Airport (KMDT)
Time Latitude Longitude Altitude Speed Heading
2026-05-07 00:04 38.74132 -90.36160 626 ft 0 kts 14°
2026-05-07 00:41 38.74124 -90.36163 627 ft 1 kts 14°
2026-05-07 00:41 38.74119 -90.36165 627 ft 0 kts 14°
2026-05-07 00:42 38.74115 -90.36166 625 ft 0 kts 15°
2026-05-07 00:42 38.74109 -90.36168 627 ft 1 kts 15°
2026-05-07 00:42 38.74103 -90.36170 624 ft 0 kts 15°
2026-05-07 00:49 38.74100 -90.36160 625 ft 1 kts 115°
2026-05-07 00:49 38.74082 -90.36144 619 ft 9 kts 159°
2026-05-07 00:49 38.74013 -90.36069 620 ft 17 kts 121°
2026-05-07 00:50 38.73965 -90.35954 625 ft 15 kts 103°
2026-05-07 00:50 38.74033 -90.35860 623 ft 16 kts 32°
2026-05-07 00:50 38.74117 -90.35773 617 ft 12 kts 77°
2026-05-07 00:50 38.74088 -90.35691 620 ft 12 kts 120°
2026-05-07 00:51 38.74034 -90.35591 631 ft 15 kts 125°
2026-05-07 00:51 38.73971 -90.35467 622 ft 18 kts 121°
2026-05-07 00:51 38.73901 -90.35321 623 ft 20 kts 122°
2026-05-07 00:51 38.73820 -90.35165 626 ft 22 kts 126°
2026-05-07 00:52 38.73736 -90.34992 629 ft 24 kts 122°
2026-05-07 00:52 38.73657 -90.34828 627 ft 16 kts 118°
2026-05-07 00:52 38.73697 -90.34734 619 ft 7 kts 34°
2026-05-07 00:52 38.73699 -90.34731 619 ft 0 kts 34°
2026-05-07 00:56 38.73708 -90.34724 619 ft 3 kts 34°
2026-05-07 00:56 38.73737 -90.34699 617 ft 7 kts 33°
2026-05-07 00:57 38.73780 -90.34686 619 ft 5 kts 345°
2026-05-07 00:57 38.73877 -90.34846 623 ft 52 kts 301°
2026-05-07 00:57 38.74183 -90.35469 630 ft 111 kts 302°
2026-05-07 00:57 38.74684 -90.36482 618 ft 157 kts 302°
2026-05-07 00:58 38.75227 -90.37656 1228 ft 149 kts 301°
2026-05-07 00:58 38.75782 -90.38834 1731 ft 156 kts 302°
2026-05-07 00:58 38.76342 -90.40015 2342 ft 159 kts 304°
2026-05-07 00:58 38.76961 -90.41321 2642 ft 181 kts 301°
2026-05-07 00:59 38.79286 -90.43015 2860 ft 244 kts
2026-05-07 00:59 38.80972 -90.42504 3641 ft 254 kts 24°
2026-05-07 00:59 38.82383 -90.41173 4778 ft 255 kts 45°
2026-05-07 01:00 38.83395 -90.39237 5545 ft 270 kts 63°
2026-05-07 01:00 38.83893 -90.36874 6404 ft 279 kts 84°
2026-05-07 01:00 38.83666 -90.34384 7278 ft 286 kts 105°
2026-05-07 01:00 38.82884 -90.32015 8085 ft 293 kts 122°
2026-05-07 01:01 38.81753 -90.29774 8794 ft 302 kts 122°
2026-05-07 01:01 38.80800 -90.27342 9624 ft 310 kts 111°
2026-05-07 01:01 38.80208 -90.24621 10197 ft 326 kts 101°
2026-05-07 01:01 38.80093 -90.21651 10581 ft 342 kts 78°
2026-05-07 01:02 38.80546 -90.18553 10833 ft 366 kts 79°
2026-05-07 01:02 38.80639 -90.15239 11370 ft 377 kts 95°
2026-05-07 01:02 38.80347 -90.11853 11934 ft 388 kts 98°
2026-05-07 01:02 38.80000 -90.08374 12584 ft 396 kts 98°
2026-05-07 01:03 38.79756 -90.04821 13206 ft 405 kts 95°
2026-05-07 01:03 38.79611 -90.01168 13824 ft 414 kts 94°
2026-05-07 01:03 38.79523 -89.97436 14377 ft 422 kts 94°
2026-05-07 01:03 38.79456 -89.93649 14980 ft 428 kts 94°
2026-05-07 01:04 38.79395 -89.89857 15593 ft 433 kts 94°
2026-05-07 01:04 38.79329 -89.85975 16207 ft 439 kts 94°
2026-05-07 01:04 38.79259 -89.82037 16805 ft 444 kts 94°
2026-05-07 01:04 38.79184 -89.78055 17406 ft 449 kts 94°
2026-05-07 01:05 38.79106 -89.74025 17997 ft 455 kts 94°
2026-05-07 01:05 38.79026 -89.69949 18557 ft 460 kts 94°
2026-05-07 01:05 38.78944 -89.65824 19055 ft 465 kts 95°
2026-05-07 01:05 38.78858 -89.61656 19530 ft 471 kts 95°
2026-05-07 01:06 38.78772 -89.57431 20011 ft 477 kts 94°
2026-05-07 01:06 38.78980 -89.53150 20480 ft 486 kts 83°
2026-05-07 01:06 38.79537 -89.48844 20947 ft 492 kts 82°
2026-05-07 01:06 38.80107 -89.44484 21404 ft 498 kts 82°
2026-05-07 01:07 38.80677 -89.40080 21876 ft 503 kts 82°
2026-05-07 01:07 38.81247 -89.35637 22333 ft 508 kts 82°
2026-05-07 01:07 38.81814 -89.31193 22756 ft 514 kts 82°
2026-05-07 01:07 38.82391 -89.26648 23212 ft 519 kts 82°
2026-05-07 01:08 38.82973 -89.22053 23640 ft 524 kts 83°
2026-05-07 01:08 38.83557 -89.17416 24011 ft 529 kts 83°
2026-05-07 01:08 38.84145 -89.12736 24384 ft 533 kts 83°
2026-05-07 01:08 38.84736 -89.08016 24759 ft 538 kts 83°
2026-05-07 01:09 38.85330 -89.03259 25130 ft 542 kts 83°
2026-05-07 01:09 38.85925 -88.98473 25490 ft 546 kts 83°
2026-05-07 01:09 38.86522 -88.93648 25837 ft 550 kts 83°
2026-05-07 01:09 38.86919 -88.90429 26072 ft 553 kts 83°
2026-05-07 01:10 38.87521 -88.85539 26419 ft 557 kts 83°
2026-05-07 01:10 38.88124 -88.80620 26752 ft 560 kts 83°
2026-05-07 01:10 38.88730 -88.75654 27127 ft 564 kts 83°
2026-05-07 01:10 38.89339 -88.70646 27350 ft 570 kts 83°
2026-05-07 01:11 38.89951 -88.65601 27694 ft 573 kts 83°
2026-05-07 01:11 38.90563 -88.60532 27991 ft 577 kts 83°
2026-05-07 01:11 38.91179 -88.55422 28286 ft 581 kts 83°
2026-05-07 01:11 38.91811 -88.50283 28575 ft 585 kts 80°
2026-05-07 01:12 38.92868 -88.45225 28836 ft 588 kts 69°
2026-05-07 01:12 38.94269 -88.40277 29140 ft 590 kts 68°
2026-05-07 01:12 38.95675 -88.35300 29402 ft 594 kts 68°
2026-05-07 01:12 38.97081 -88.30296 29671 ft 597 kts 68°
2026-05-07 01:13 38.98492 -88.25259 29928 ft 600 kts 69°
2026-05-07 01:13 38.99906 -88.20195 30183 ft 603 kts 69°
2026-05-07 01:13 39.01325 -88.15105 30417 ft 606 kts 69°
2026-05-07 01:13 39.02746 -88.09998 30669 ft 608 kts 69°
2026-05-07 01:14 39.04170 -88.04872 30931 ft 610 kts 69°
2026-05-07 01:14 39.05589 -87.99753 31188 ft 612 kts 69°
2026-05-07 01:14 39.07019 -87.94585 31483 ft 613 kts 69°
2026-05-07 01:14 39.08444 -87.89422 31795 ft 613 kts 69°
2026-05-07 01:15 39.09868 -87.84257 32109 ft 613 kts 69°
2026-05-07 01:15 39.11275 -87.79141 32418 ft 615 kts 69°
2026-05-07 01:15 39.12705 -87.73932 32658 ft 617 kts 69°
2026-05-07 01:15 39.14129 -87.68730 32963 ft 616 kts 69°
2026-05-07 01:16 39.15551 -87.63526 33283 ft 616 kts 69°
2026-05-07 01:16 39.16972 -87.58317 33587 ft 616 kts 69°
2026-05-07 01:16 39.18391 -87.53105 33872 ft 616 kts 69°
2026-05-07 01:16 39.19807 -87.47895 34140 ft 616 kts 69°
2026-05-07 01:17 39.21221 -87.42679 34385 ft 616 kts 69°
2026-05-07 01:17 39.22631 -87.37467 34631 ft 616 kts 69°
2026-05-07 01:17 39.24042 -87.32239 34838 ft 616 kts 69°
2026-05-07 01:17 39.25446 -87.27026 35080 ft 615 kts 69°
2026-05-07 01:18 39.26850 -87.21807 35291 ft 615 kts 69°
2026-05-07 01:18 39.28250 -87.16587 35515 ft 615 kts 69°
2026-05-07 01:18 39.29647 -87.11372 35733 ft 615 kts 69°
2026-05-07 01:18 39.31043 -87.06145 35944 ft 615 kts 69°
2026-05-07 01:19 39.32437 -87.00916 36211 ft 615 kts 69°
2026-05-07 01:19 39.33829 -86.95685 36428 ft 615 kts 69°
2026-05-07 01:19 39.35198 -86.90529 36625 ft 614 kts 69°
2026-05-07 01:19 39.36581 -86.85310 36830 ft 614 kts 69°
2026-05-07 01:20 39.37960 -86.80098 37021 ft 614 kts 69°
2026-05-07 01:20 39.40717 -86.69654 37049 ft 613 kts 69°
2026-05-07 01:21 39.43461 -86.59213 37047 ft 613 kts 69°
2026-05-07 01:21 39.46192 -86.48762 37035 ft 613 kts 69°
2026-05-07 01:22 39.48917 -86.38293 37034 ft 613 kts 69°
2026-05-07 01:22 39.51629 -86.27829 37040 ft 613 kts 69°
2026-05-07 01:23 39.54336 -86.17340 37049 ft 613 kts 69°
2026-05-07 01:23 39.57026 -86.06871 37056 ft 613 kts 69°
2026-05-07 01:24 39.59716 -85.96362 37054 ft 613 kts 69°
2026-05-07 01:24 39.62373 -85.85935 37027 ft 613 kts 69°
2026-05-07 01:25 39.65746 -85.75853 37025 ft 608 kts 59°
2026-05-07 01:25 39.69476 -85.66001 37030 ft 608 kts 59°
2026-05-07 01:26 39.73198 -85.56113 37052 ft 609 kts 59°
2026-05-07 01:26 39.76898 -85.46246 37027 ft 606 kts 59°
2026-05-07 01:27 39.80589 -85.36374 37026 ft 607 kts 59°
2026-05-07 01:27 39.84273 -85.26491 37034 ft 606 kts 59°
2026-05-07 01:28 39.87921 -85.16668 37033 ft 607 kts 59°
2026-05-07 01:28 39.91584 -85.06771 37034 ft 607 kts 59°
2026-05-07 01:29 39.95242 -84.96855 37043 ft 607 kts 59°
2026-05-07 01:29 39.98892 -84.86929 37044 ft 607 kts 59°
2026-05-07 01:30 40.02532 -84.76993 37041 ft 607 kts 59°
2026-05-07 01:30 40.06161 -84.67057 37037 ft 607 kts 59°
2026-05-07 01:31 40.09781 -84.57107 37032 ft 606 kts 59°
2026-05-07 01:31 40.13391 -84.47154 37057 ft 607 kts 59°
2026-05-07 01:32 40.16983 -84.37215 37023 ft 603 kts 60°
2026-05-07 01:32 40.20561 -84.27284 36993 ft 604 kts 60°
2026-05-07 01:33 40.24134 -84.17331 37025 ft 605 kts 60°
2026-05-07 01:33 40.27498 -84.07237 37026 ft 609 kts 70°
2026-05-07 01:33 40.28541 -84.01853 37030 ft 611 kts 81°
2026-05-07 01:34 40.29007 -83.96330 37028 ft 609 kts 91°
2026-05-07 01:34 40.29289 -83.85225 37029 ft 610 kts 91°
2026-05-07 01:35 40.29586 -83.74110 37033 ft 611 kts 91°
2026-05-07 01:35 40.29867 -83.63009 37026 ft 608 kts 91°
2026-05-07 01:36 40.30129 -83.52013 36983 ft 605 kts 91°
2026-05-07 01:36 40.30372 -83.40955 37015 ft 609 kts 91°
2026-05-07 01:37 40.30615 -83.29879 37019 ft 607 kts 91°
2026-05-07 01:37 40.30851 -83.18814 37014 ft 608 kts 91°
2026-05-07 01:38 40.31076 -83.07748 37019 ft 607 kts 91°
2026-05-07 01:38 40.31290 -82.96693 37013 ft 606 kts 91°
2026-05-07 01:39 40.31494 -82.85651 37009 ft 606 kts 91°
2026-05-07 01:39 40.31687 -82.74604 37002 ft 605 kts 91°
2026-05-07 01:40 40.31868 -82.63646 36997 ft 605 kts 91°
2026-05-07 01:40 40.32039 -82.52616 36994 ft 605 kts 91°
2026-05-07 01:41 40.32200 -82.41593 36995 ft 605 kts 91°
2026-05-07 01:41 40.32349 -82.30567 36984 ft 605 kts 91°
2026-05-07 01:42 40.32489 -82.19516 36988 ft 606 kts 91°
2026-05-07 01:42 40.32618 -82.08467 36995 ft 607 kts 91°
2026-05-07 01:43 40.32737 -81.97404 36999 ft 607 kts 92°
2026-05-07 01:43 40.32843 -81.86324 37005 ft 608 kts 92°
2026-05-07 01:44 40.32941 -81.75243 37011 ft 609 kts 92°
2026-05-07 01:44 40.33029 -81.64175 36989 ft 609 kts 92°
2026-05-07 01:45 40.33105 -81.53104 36998 ft 606 kts 92°
2026-05-07 01:45 40.33170 -81.42127 36991 ft 606 kts 92°
2026-05-07 01:46 40.33224 -81.31066 36993 ft 606 kts 92°
2026-05-07 01:46 40.33267 -81.20021 36999 ft 605 kts 92°
2026-05-07 01:47 40.33301 -81.08981 36999 ft 606 kts 92°
2026-05-07 01:47 40.33322 -80.97940 37009 ft 606 kts 92°
2026-05-07 01:48 40.33335 -80.86889 36999 ft 606 kts 92°
2026-05-07 01:48 40.33338 -80.75851 36990 ft 605 kts 92°
2026-05-07 01:49 40.33330 -80.64887 36979 ft 605 kts 92°
2026-05-07 01:49 40.33311 -80.53854 37005 ft 605 kts 92°
2026-05-07 01:50 40.33281 -80.42824 36993 ft 605 kts 92°
2026-05-07 01:50 40.33242 -80.31797 36986 ft 605 kts 92°
2026-05-07 01:51 40.33191 -80.20775 36983 ft 604 kts 92°
2026-05-07 01:51 40.33131 -80.09772 36962 ft 603 kts 92°
2026-05-07 01:52 40.33061 -79.98768 36966 ft 603 kts 92°
2026-05-07 01:52 40.32977 -79.87781 36968 ft 603 kts 92°
2026-05-07 01:53 40.32884 -79.76784 36961 ft 602 kts 92°
2026-05-07 01:53 40.32781 -79.65807 36591 ft 603 kts 93°
2026-05-07 01:53 40.32726 -79.60302 36023 ft 603 kts 93°
2026-05-07 01:54 40.32669 -79.54867 35308 ft 605 kts 93°
2026-05-07 01:54 40.32608 -79.49337 34520 ft 608 kts 93°
2026-05-07 01:54 40.32545 -79.43787 33673 ft 612 kts 94°
2026-05-07 01:54 40.32479 -79.38210 32859 ft 610 kts 94°
2026-05-07 01:55 40.32411 -79.32668 32151 ft 608 kts 94°
2026-05-07 01:55 40.32340 -79.27137 31407 ft 607 kts 94°
2026-05-07 01:55 40.32266 -79.21614 30659 ft 605 kts 94°
2026-05-07 01:55 40.32189 -79.16105 29863 ft 603 kts 94°
2026-05-07 01:56 40.32110 -79.10626 28975 ft 600 kts 94°
2026-05-07 01:56 40.32031 -79.05186 28272 ft 594 kts 94°
2026-05-07 01:56 40.31978 -79.01624 27969 ft 586 kts 94°
2026-05-07 01:56 40.31896 -78.96323 27364 ft 578 kts 94°
2026-05-07 01:57 40.31811 -78.91008 26706 ft 572 kts 94°
2026-05-07 01:57 40.31726 -78.85826 26110 ft 566 kts 95°
2026-05-07 01:57 40.31648 -78.80769 25530 ft 560 kts 94°
2026-05-07 01:57 40.31630 -78.75690 24950 ft 555 kts 93°
2026-05-07 01:58 40.31637 -78.70687 24396 ft 549 kts 93°
2026-05-07 01:58 40.31643 -78.65714 23882 ft 541 kts 93°
2026-05-07 01:58 40.31643 -78.60825 23396 ft 533 kts 93°
2026-05-07 01:58 40.31634 -78.55988 22730 ft 528 kts 93°
2026-05-07 01:59 40.31620 -78.51208 22147 ft 522 kts 93°
2026-05-07 01:59 40.31603 -78.46510 21744 ft 511 kts 93°
2026-05-07 01:59 40.31584 -78.41900 21487 ft 498 kts 93°
2026-05-07 01:59 40.31564 -78.37418 21232 ft 485 kts 93°
2026-05-07 02:00 40.31542 -78.33029 21014 ft 482 kts 93°
2026-05-07 02:00 40.31516 -78.28610 20762 ft 485 kts 93°
2026-05-07 02:00 40.31491 -78.24202 20535 ft 482 kts 93°
2026-05-07 02:00 40.31465 -78.19834 20286 ft 477 kts 93°
2026-05-07 02:01 40.31437 -78.15492 20036 ft 477 kts 93°
2026-05-07 02:01 40.31407 -78.11164 19800 ft 473 kts 93°
2026-05-07 02:01 40.31377 -78.06863 19561 ft 471 kts 93°
2026-05-07 02:01 40.31345 -78.02584 19271 ft 469 kts 93°
2026-05-07 02:02 40.31310 -77.98298 18709 ft 471 kts 92°
2026-05-07 02:02 40.31273 -77.94004 17974 ft 472 kts 92°
2026-05-07 02:02 40.31237 -77.89686 16997 ft 476 kts 92°
2026-05-07 02:02 40.31203 -77.85358 16420 ft 470 kts 92°
2026-05-07 02:03 40.31168 -77.81127 15979 ft 461 kts 93°
2026-05-07 02:03 40.31131 -77.76959 15292 ft 458 kts 93°
2026-05-07 02:03 40.31090 -77.72801 14551 ft 450 kts 93°
2026-05-07 02:03 40.31050 -77.68803 13879 ft 440 kts 94°
2026-05-07 02:04 40.31009 -77.64843 13287 ft 427 kts 94°
2026-05-07 02:04 40.30967 -77.61039 12957 ft 408 kts 94°
2026-05-07 02:04 40.30925 -77.57359 12215 ft 403 kts 94°
2026-05-07 02:04 40.30879 -77.53706 11545 ft 397 kts 94°
2026-05-07 02:05 40.30837 -77.50163 11281 ft 380 kts 94°
2026-05-07 02:05 40.30798 -77.46793 11091 ft 361 kts 94°
2026-05-07 02:05 40.30759 -77.43578 10814 ft 347 kts 94°
2026-05-07 02:05 40.30717 -77.40455 10594 ft 342 kts 95°
2026-05-07 02:06 40.30674 -77.37319 10422 ft 344 kts 95°
2026-05-07 02:06 40.30631 -77.34217 10254 ft 337 kts 95°
2026-05-07 02:06 40.30571 -77.31156 10086 ft 337 kts 100°
2026-05-07 02:06 40.29939 -77.28259 10008 ft 326 kts 126°
2026-05-07 02:07 40.28794 -77.25706 9937 ft 324 kts 129°
2026-05-07 02:07 40.26470 -77.20696 8865 ft 321 kts 129°
2026-05-07 02:07 40.25297 -77.18221 8237 ft 319 kts 129°
2026-05-07 02:08 40.24122 -77.15806 7629 ft 318 kts 129°
2026-05-07 02:08 40.22918 -77.13397 7014 ft 315 kts 129°
2026-05-07 02:08 40.21707 -77.11013 6427 ft 313 kts 129°
2026-05-07 02:08 40.20514 -77.08694 6116 ft 300 kts 129°
2026-05-07 02:09 40.19364 -77.06495 5948 ft 293 kts 129°
2026-05-07 02:09 40.18186 -77.04289 5787 ft 295 kts 129°
2026-05-07 02:09 40.17028 -77.02100 5622 ft 292 kts 129°
2026-05-07 02:09 40.15897 -76.99897 5468 ft 292 kts 129°
2026-05-07 02:10 40.14764 -76.97702 5314 ft 291 kts 129°
2026-05-07 02:10 40.13631 -76.95527 5163 ft 287 kts 129°
2026-05-07 02:10 40.12521 -76.93416 5010 ft 278 kts 129°
2026-05-07 02:10 40.11424 -76.91335 4970 ft 279 kts 127°
2026-05-07 02:11 40.10476 -76.89122 4972 ft 282 kts 120°
2026-05-07 02:11 40.09652 -76.86887 5093 ft 260 kts 119°
2026-05-07 02:11 40.08906 -76.84783 4947 ft 256 kts 119°
2026-05-07 02:11 40.08171 -76.82660 4809 ft 255 kts 119°
2026-05-07 02:12 40.07437 -76.80564 4661 ft 254 kts 119°
2026-05-07 02:12 40.06693 -76.78478 4502 ft 253 kts 119°
2026-05-07 02:12 40.05939 -76.76414 4327 ft 249 kts 119°
2026-05-07 02:12 40.05200 -76.74413 4100 ft 242 kts 119°
2026-05-07 02:13 40.04471 -76.72453 3840 ft 238 kts 115°
2026-05-07 02:13 40.04206 -76.70360 3579 ft 232 kts 80°
2026-05-07 02:13 40.04605 -76.68399 3345 ft 218 kts 66°
2026-05-07 02:13 40.05437 -76.66851 2956 ft 203 kts 30°
2026-05-07 02:14 40.06641 -76.65992 2587 ft 195 kts 19°
2026-05-07 02:14 40.07842 -76.65246 2222 ft 191 kts 19°
2026-05-07 02:14 40.09007 -76.64522 2086 ft 178 kts 19°
2026-05-07 02:14 40.10156 -76.63881 2085 ft 179 kts
2026-05-07 02:15 40.11344 -76.63616 2081 ft 168 kts 357°
2026-05-07 02:15 40.12516 -76.63638 2088 ft 173 kts 353°
2026-05-07 02:15 40.13721 -76.63724 2077 ft 168 kts 343°
2026-05-07 02:15 40.14658 -76.64540 2028 ft 168 kts 307°
2026-05-07 02:16 40.15273 -76.65822 1703 ft 161 kts 299°
2026-05-07 02:16 40.15732 -76.67092 1466 ft 148 kts 295°
2026-05-07 02:16 40.16178 -76.68293 1143 ft 143 kts 296°
2026-05-07 02:16 40.16613 -76.69462 994 ft 145 kts 300°
2026-05-07 02:17 40.17111 -76.70620 901 ft 146 kts 301°
2026-05-07 02:17 40.17579 -76.71778 770 ft 144 kts 299°
2026-05-07 02:17 40.18016 -76.72947 666 ft 141 kts 300°
2026-05-07 02:17 40.18456 -76.74060 508 ft 140 kts 301°
2026-05-07 02:18 40.18884 -76.75144 340 ft 129 kts 299°
2026-05-07 02:18 40.19263 -76.76108 314 ft 98 kts 296°
2026-05-07 02:18 40.19438 -76.76569 314 ft 37 kts 298°
2026-05-07 02:18 40.19539 -76.76678 314 ft 15 kts 24°
2026-05-07 02:19 40.19553 -76.76550 313 ft 18 kts 117°
2026-05-07 02:19 40.19496 -76.76408 312 ft 17 kts 116°
2026-05-07 02:19 40.19438 -76.76250 313 ft 21 kts 115°
2026-05-07 02:19 40.19369 -76.76068 313 ft 24 kts 118°
2026-05-07 02:20 40.19287 -76.75866 313 ft 26 kts 117°
2026-05-07 02:20 40.19219 -76.75686 313 ft 19 kts 117°
2026-05-07 02:20 40.19180 -76.75553 314 ft 9 kts 79°
2026-05-07 02:20 40.19210 -76.75505 312 ft 9 kts 27°
2026-05-07 02:21 40.19223 -76.75497 313 ft 0 kts 26°
2026-05-07 02:26 40.19234 -76.75490 311 ft 8 kts 26°
2026-05-07 02:27 40.19313 -76.75475 312 ft 14 kts 355°
2026-05-07 02:27 40.19374 -76.75510 312 ft 5 kts 338°
2026-05-07 02:27 40.19415 -76.75493 312 ft 6 kts 31°
2026-05-07 02:27 40.19426 -76.75484 312 ft 0 kts 33°